Location: Newark
(34.9500°N, 139.9667°E)
Time: 03:45:59
(UTC+00:00)

Vanguard 1 Rocket - Pass Details

Date: 09 December 2019
Orbit: 650 x 4226 km, 34.3° (Epoch: 17 January)

Event Time Altitude Azimuth Distance (km) Brightness Sun altitude
Rises 08:14:58 0° 203° (SSW) 8,461 13.0 -9.5°
Reaches altitude 10° 08:22:46 10° 192° (SSW) 7,318 12.4 -11.0°
Maximum altitude 08:40:34 27° 145° (SE) 5,044 11.0 -14.4°
Enters shadow 08:51:31 13° 100° (E) 5,002 10.6 -16.6°
Drops below altitude 10° 08:52:58 10° 95° (E) 5,132 - -16.9°
Sets 08:57:01 0° 84° (E) 5,656 - -17.7°
